Millville, NJ

11:46 AM EDT on March 29, 2017 (GMT -0400)
Millville Municipal

Weather History for KMIV - August, 2013

Change the Weather History Date:

Wednesday, August 28, 2013

  Actual Average Record
Temperature  
Mean Temperature 72 °F -  
Max Temperature 79 °F 83 °F 99 °F (1948)
Min Temperature 66 °F 66 °F 47 °F (1986)
Cooling Degree Days 8    
Growing Degree Days 22 (Base 50)    
Moisture  
Dew Point 71 °F    
Average Humidity 96    
Maximum Humidity 100    
Minimum Humidity 84    
Precipitation  
Precipitation 1.38 in - - ()
Sea Level Pressure  
Sea Level Pressure 29.87 in    
Wind  
Wind Speed 2 mph (NNE)    
Max Wind Speed 12 mph    
Max Gust Speed 17 mph    
Visibility 4 miles    
Events Fog , Rain , Thunderstorm    
Averages and records for this station are not official NWS values.
T = Trace of Precipitation, MM = Missing Value Source: NWS Daily Summary

Daily Weather History Graph

Daily Weather History Graph

Search for Another Location

Airport or City:

Trip Planner

Search our weather history database for the weather conditions in past years. The results will help you decide how hot, cold, wet, or windy it might be!

Date:

Astronomy

Aug. 28, 2013 Rise Set
Actual Time 6:25 AM EDT 7:36 PM EDT
Civil Twilight 5:57 AM EDT 8:04 PM EDT
Nautical Twilight 5:24 AM EDT 8:37 PM EDT
Astronomical Twilight 4:49 AM EDT 9:12 PM EDT
Moon No Moon Rise 2:11 PM EDT (8/28)
Length of Visible Light 14h 07m
Length of Day
13h 11m
Waning Gibbous, 47% of the Moon is Illuminated
Aug 28
Waning Gibbous
Sep 5
New
Sep 12
First Quarter
Sep 19
Full
Sep 26
Last Quarter

Hourly Weather History & Observations

Time (EDT) Temp. Dew Point Humidity Pressure Visibility Wind Dir Wind Speed Gust Speed Precip Events Conditions
12:54 AM 69.1 °F 68.0 °F 96% 29.91 in 5.0 mi Calm Calm - N/A   Clear
1:54 AM 68.0 °F 66.9 °F 96% 29.89 in 5.0 mi Calm Calm - N/A   Clear
2:54 AM 68.0 °F 66.0 °F 93% 29.87 in 6.0 mi Calm Calm - N/A   Clear
3:54 AM 66.9 °F 66.9 °F 100% 29.87 in 5.0 mi Calm Calm - N/A   Clear
4:54 AM 68.0 °F 66.9 °F 96% 29.86 in 5.0 mi Calm Calm - N/A   Clear
5:54 AM 68.0 °F 66.9 °F 96% 29.86 in 4.0 mi Calm Calm - N/A   Clear
6:54 AM 69.1 °F 68.0 °F 96% 29.87 in 4.0 mi Calm Calm - N/A   Clear
7:54 AM 71.1 °F 70.0 °F 96% 29.88 in 4.0 mi Calm Calm - N/A   Clear
8:18 AM 73.4 °F 71.6 °F 94% 29.88 in 2.5 mi Calm Calm - N/A   Clear
8:54 AM 75.9 °F 73.9 °F 94% 29.88 in 2.5 mi Variable 3.5 mph - N/A   Clear
9:06 AM 75.2 °F 73.4 °F 94% 29.89 in 3.0 mi SW 3.5 mph - N/A   Clear
9:54 AM 79.0 °F 73.9 °F 84% 29.89 in 4.0 mi Calm Calm - N/A   Haze
10:54 AM 79.0 °F 75.0 °F 88% 29.88 in 4.0 mi SE 3.5 mph - N/A   Mostly Cloudy
11:33 AM 78.8 °F 75.2 °F 89% 29.88 in 1.8 mi SE 3.5 mph - 0.03 in Rain Rain
11:40 AM 78.8 °F 75.2 °F 89% 29.87 in 2.0 mi Calm Calm - 0.03 in Rain Light Rain
11:54 AM 77.0 °F 75.9 °F 96% 29.86 in 2.5 mi Calm Calm - 0.03 in Rain Light Rain
12:03 PM 77.0 °F 75.2 °F 94% 29.86 in 0.8 mi Calm Calm - 0.06 in Rain Heavy Rain
12:12 PM 77.0 °F 75.2 °F 94% 29.85 in 1.0 mi Calm Calm - 0.07 in Rain , Thunderstorm Light Rain
12:23 PM 77.0 °F 75.2 °F 94% 29.86 in 2.0 mi Calm Calm - 0.07 in Thunderstorm Overcast
12:30 PM 77.0 °F 75.2 °F 94% 29.86 in 1.8 mi West 6.9 mph - 0.07 in Rain , Thunderstorm Light Thunderstorms and Rain
12:39 PM 75.2 °F 73.4 °F 94% 29.87 in 0.5 mi Variable 3.5 mph 17.3 mph 0.20 in Fog , Rain , Thunderstorm Heavy Rain
12:54 PM 75.0 °F 75.0 °F 100% 29.87 in 0.8 mi North 5.8 mph - 0.35 in Rain , Thunderstorm Heavy Thunderstorms and Rain
1:12 PM 71.6 °F 69.8 °F 94% 29.89 in 1.0 mi NE 5.8 mph - 0.39 in Rain , Thunderstorm Heavy Thunderstorms and Rain
1:23 PM 71.6 °F 69.8 °F 94% 29.89 in 1.2 mi North 8.1 mph - 0.48 in Rain , Thunderstorm Heavy Thunderstorms and Rain
1:49 PM 69.8 °F 69.8 °F 100% 29.89 in 1.5 mi North 9.2 mph - 0.71 in Rain Rain
1:54 PM 70.0 °F 69.1 °F 97% 29.88 in 1.8 mi North 11.5 mph - 0.75 in Rain Heavy Rain
2:04 PM 71.6 °F 69.8 °F 94% 29.88 in 1.2 mi North 5.8 mph - 0.07 in Rain Heavy Rain
2:12 PM 71.6 °F 69.8 °F 94% 29.88 in 1.8 mi NNW 6.9 mph - 0.09 in Rain Rain
2:19 PM 71.6 °F 69.8 °F 94% 29.88 in 3.0 mi NNW 6.9 mph - 0.10 in Rain Rain
2:28 PM 69.8 °F 69.8 °F 100% 29.88 in 2.5 mi NW 5.8 mph - 0.12 in Rain Rain
2:39 PM 71.6 °F 69.8 °F 94% 29.87 in 4.0 mi WNW 5.8 mph - 0.13 in Rain Light Rain
2:54 PM 72.0 °F 70.0 °F 93% 29.86 in 10.0 mi West 5.8 mph - 0.14 in Rain Light Rain
3:54 PM 72.0 °F 70.0 °F 93% 29.84 in 6.0 mi NNE 3.5 mph - 0.02 in Rain Light Rain
4:54 PM 73.0 °F 71.1 °F 93% 29.83 in 10.0 mi East 6.9 mph - 0.00 in   Overcast
5:35 PM 73.4 °F 71.6 °F 94% 29.83 in 10.0 mi East 5.8 mph - N/A   Mostly Cloudy
5:54 PM 73.0 °F 72.0 °F 96% 29.83 in 10.0 mi ENE 5.8 mph - N/A   Scattered Clouds
6:54 PM 73.0 °F 71.1 °F 93% 29.84 in 10.0 mi ENE 3.5 mph - 0.01 in   Mostly Cloudy
7:20 PM 73.4 °F 71.6 °F 94% 29.85 in 8.0 mi Calm Calm - 0.00 in Rain Light Rain
7:54 PM 72.0 °F 71.1 °F 97% 29.86 in 4.0 mi WSW 3.5 mph - 0.01 in Rain Light Rain
8:01 PM 71.6 °F 71.6 °F 100% 29.86 in 4.0 mi Calm Calm - 0.00 in Rain Light Rain
8:54 PM 72.0 °F 71.1 °F 97% 29.86 in 5.0 mi Calm Calm - 0.05 in Rain Light Rain
9:23 PM 71.6 °F 71.6 °F 100% 29.87 in 4.0 mi Calm Calm - 0.02 in Rain Light Rain
9:41 PM 71.6 °F 71.6 °F 100% 29.86 in 3.0 mi Calm Calm - 0.02 in   Scattered Clouds
9:54 PM 71.1 °F 71.1 °F 100% 29.86 in 3.0 mi Calm Calm - 0.02 in   Mostly Cloudy
10:00 PM 71.6 °F 71.6 °F 100% 29.86 in 2.5 mi Calm Calm - N/A   Mostly Cloudy
10:07 PM 71.6 °F 71.6 °F 100% 29.86 in 4.0 mi NE 3.5 mph - N/A   Mostly Cloudy
10:14 PM 71.6 °F 69.8 °F 94% 29.86 in 5.0 mi ENE 3.5 mph - N/A   Scattered Clouds
10:32 PM 69.8 °F 69.8 °F 100% 29.86 in 1.8 mi Calm Calm - N/A   Partly Cloudy
10:38 PM 69.8 °F 69.8 °F 100% 29.86 in 0.8 mi Calm Calm - N/A   Mist
10:49 PM 71.6 °F 69.8 °F 94% 29.87 in 2.5 mi Calm Calm - N/A   Mostly Cloudy
10:54 PM 71.1 °F 71.1 °F 100% 29.86 in 4.0 mi Calm Calm - N/A   Mostly Cloudy
11:22 PM 71.6 °F 71.6 °F 100% 29.86 in 3.0 mi Calm Calm - N/A   Overcast
11:31 PM 71.6 °F 71.6 °F 100% 29.86 in 3.0 mi North 3.5 mph - N/A   Overcast
11:54 PM 71.1 °F 71.1 °F 100% 29.86 in 5.0 mi Calm Calm - N/A   Overcast